Location: Remedello Sotto
(45.2500°N, 10.3667°E)
Time: 10:29:34
(UTC+00:00)

CZ-4 R/B - Pass Details

Date: 03 February 2023
Orbit: 525 x 587 km, 97.7° (Epoch: 20 March)

Event Time Altitude Azimuth Distance (km) Brightness Sun altitude
Rises 18:00:34 0° 154° (SSE) 2,802 4.7 -16.5°
Reaches altitude 10° 18:02:45 10° 149° (SSE) 1,900 3.8 -16.9°
Maximum altitude 18:06:46 53° 73° (ENE) 719 1.5 -17.6°
Drops below altitude 10° 18:10:45 10° 357° (N) 1,885 4.0 -18.3°
Sets 18:12:55 0° 352° (N) 2,777 5.0 -18.7°
